This demonstration page uses our WeatherBlox Daily Observations layout. Learn more.

Left ArrowRight Arrow

Hourly Observations for April 19, 2015

Temp ( °F °C ) Dew Point ( °F °C ) Humidity (%) Winds ( mph kmh ) Pressure ( in mb ) Visibility ( mi km ) Precip ( " mm )
12:53 am 00:53 Mostly Clear 52 11.1 47 8.3 83 83 SSW 7 11 29.76 1008 10 16 0.00 0.00
1:53 am 01:53 Cloudy 52 11.1 49 9.4 89 89 W 5 7 29.75 1008 10 16 0.00 0.00
2:53 am 02:53 Cloudy with Light Rain 53 11.7 48 8.9 83 83 N 9 15 29.76 1008 10 16 0.00 0.03
3:53 am 03:53 Cloudy 52 11.1 48 8.9 86 86 NW 7 11 29.74 1007 10 16 0.00 0.03
4:53 am 04:53 Cloudy 52 11.1 48 8.9 86 86 NNW 8 13 29.74 1007 10 16 0.00 0.00
5:53 am 05:53 Cloudy with Light Rain 51 10.6 48 8.9 89 89 N 14 22 29.74 1007 10 16 0.01 0.25
6:53 am 06:53 Cloudy 51 10.6 49 9.4 92 92 N 12 19 29.78 1008 10 16 0.00 0.03
7:26 am 07:26 Cloudy with Light Rain 52 11 48 9 88 88 N 18 30 29.80 1009 6 10 0.00 0.00
7:53 am 07:53 Cloudy with Light Rain 50 10 47 8.3 89 89 N 18 30 29.82 1010 6 10 0.02 0.51
8:37 am 08:37 Cloudy with Light Rain 49 9.4 46 7.8 90 90 N 22 35 29.83 1010 7 11 0.03 0.76
8:53 am 08:53 Cloudy with Light Rain 49 9.4 46 7.8 90 90 N 20 31 29.83 1010 5 8 0.04 1.02
9:05 am 09:05 Cloudy with Light Rain 49 9.4 46 7.8 90 90 N 17 28 29.83 1010 7 11 0.01 0.25
9:14 am 09:14 Cloudy with Light Rain 49 9.4 46 7.8 90 90 N 16 26 29.83 1010 8 13 0.01 0.25
9:53 am 09:53 Cloudy with Light Rain 49 9.4 47 8.3 93 93 N 14 22 29.84 1011 6 10 0.03 0.76
10:53 am 10:53 Cloudy with Light Rain 48 8.9 42 5.6 80 80 N 26 43 29.88 1012 10 16 0.03 0.76
11:53 am 11:53 Cloudy 50 10 37 2.8 61 61 NNW 28 44 29.89 1012 10 16 0.00 0.03
12:53 pm 12:53 Cloudy 51 10.6 34 1.1 52 52 NNW 31 50 29.88 1012 10 16 0.00 0.00
1:53 pm 13:53 Cloudy 51 10.6 32 0 48 48 NNW 31 50 29.88 1012 10 16 0.00 0.00
2:53 pm 14:53 Mostly Cloudy 53 11.7 33 0.6 47 47 NNW 31 50 29.86 1011 10 16 0.00 0.00
3:53 pm 15:53 Mostly Cloudy 53 11.7 32 0 45 45 NNW 28 44 29.85 1011 10 16 0.00 0.00
4:53 pm 16:53 Mostly Cloudy 53 11.7 34 1.1 48 48 N 18 30 29.83 1010 10 16 0.00 0.00
5:53 pm 17:53 Mostly Cloudy 54 12.2 32 0 43 43 NNW 26 43 29.83 1010 10 16 0.00 0.00
6:53 pm 18:53 Mostly Cloudy 52 11.1 32 0 47 47 NNW 22 35 29.84 1010 10 16 0.00 0.00
7:53 pm 19:53 Cloudy 50 10 32 0 50 50 NNW 20 31 29.85 1011 10 16 0.00 0.00
8:53 pm 20:53 Cloudy 48 8.9 30 -1.1 50 50 NNW 18 30 29.87 1011 10 16 0.00 0.00
9:53 pm 21:53 Clear 45 7.2 31 -0.6 58 58 NNW 12 19 29.89 1012 10 16 0.00 0.00
10:53 pm 22:53 Clear 40 4.4 32 0 73 73 NW 9 15 29.90 1013 10 16 0.00 0.00
11:53 pm 23:53 Clear 41 5 32 0 70 70 NW 14 22 29.90 1013 10 16 0.00 0.00

Powered by AerisWeather